| time (UTC) | temp C | wind direction | speed KPH | gust KPH | rain 1hr cm | rain 24hr cm | rain mn cm | humidity % | barometer mb |
| 20260502164053 | 28 | 112 | 3.2 | 14.5 | 0.00 | 0.00 | 0.00 | 25 | 1011.7 |
| 20260502163551 | 28 | 96 | 6.4 | 14.5 | 0.00 | 0.00 | 0.00 | 25 | 1011.7 |
| 20260502163050 | 27 | 102 | 6.4 | 14.5 | 0.00 | 0.00 | 0.00 | 25 | 1011.6 |
| 20260502162549 | 27 | 117 | 3.2 | 16.1 | 0.00 | 0.00 | 0.00 | 25 | 1011.6 |
| 20260502162047 | 27 | 86 | 8.0 | 16.1 | 0.00 | 0.00 | 0.00 | 25 | 1011.6 |
| 20260502161547 | 27 | 130 | 3.2 | 14.5 | 0.00 | 0.00 | 0.00 | 26 | 1011.5 |
| 20260502161045 | 27 | 97 | 4.8 | 14.5 | 0.00 | 0.00 | 0.00 | 27 | 1011.5 |
| 20260502160543 | 26 | 65 | 3.2 | 12.9 | 0.00 | 0.00 | 0.00 | 26 | 1011.6 |
| 20260502152033 | 26 | 120 | 4.8 | 20.9 | 0.00 | 0.00 | 0.00 | 25 | 1011.4 |
| 20260502151534 | 25 | 136 | 9.7 | 20.9 | 0.00 | 0.00 | 0.00 | 26 | 1011.4 |
| 20260502151031 | 25 | 53 | 3.2 | 9.7 | 0.00 | 0.00 | 0.00 | 24 | 1011.3 |
| 20260502150528 | 25 | 82 | 4.8 | 11.3 | 0.00 | 0.00 | 0.00 | 24 | 1011.3 |
| 20260502130557 | 22 | 18 | 4.8 | 12.9 | 0.00 | 0.00 | 0.00 | 24 | 1009.9 |
| 20260502130103 | 22 | 50 | 4.8 | 11.3 | 0.00 | 0.00 | 0.00 | 23 | 1009.8 |
| 20260502123552 | 22 | 26 | 4.8 | 9.7 | 0.00 | 0.00 | 0.00 | 22 | 1009.4 |
| 20260502123052 | 22 | 33 | 4.8 | 14.5 | 0.00 | 0.00 | 0.00 | 22 | 1009.4 |
| 20260502122552 | 22 | 24 | 8.0 | 14.5 | 0.00 | 0.00 | 0.00 | 22 | 1009.3 |
| 20260502122051 | 22 | 36 | 8.0 | 12.9 | 0.00 | 0.00 | 0.00 | 22 | 1009.3 |
| 20260502121551 | 22 | 19 | 4.8 | 12.9 | 0.00 | 0.00 | 0.00 | 23 | 1009.2 |
| 20260502121049 | 22 | 26 | 6.4 | 12.9 | 0.00 | 0.00 | 0.00 | 22 | 1009.1 |
| 20260502120552 | 22 | 63 | 8.0 | 12.9 | 0.00 | 0.00 | 0.00 | 22 | 1009.1 |
| 20260502115549 | 23 | 31 | 6.4 | 12.9 | 0.00 | 0.00 | 0.00 | 23 | 1009.1 |
| 20260502115049 | 23 | 26 | 4.8 | 12.9 | 0.00 | 0.00 | 0.00 | 23 | 1009.2 |
| 20260502114553 | 23 | 29 | 6.4 | 12.9 | 0.00 | 0.00 | 0.00 | 22 | 1009.2 |
| 20260502114048 | 23 | 46 | 6.4 | 12.9 | 0.00 | 0.00 | 0.00 | 23 | 1009.2 |
| 20260502113545 | 23 | 355 | 6.4 | 12.9 | 0.00 | 0.00 | 0.00 | 23 | 1009.1 |
| 20260502113046 | 23 | 26 | 6.4 | 12.9 | 0.00 | 0.00 | 0.00 | 22 | 1009.0 |
| 20260502112544 | 23 | 33 | 6.4 | 12.9 | 0.00 | 0.00 | 0.00 | 22 | 1009.1 |
| 20260502112044 | 23 | 50 | 6.4 | 14.5 | 0.00 | 0.00 | 0.00 | 22 | 1009.1 |
| 20260502111543 | 23 | 14 | 8.0 | 14.5 | 0.00 | 0.00 | 0.00 | 22 | 1009.0 |
| 20260502111043 | 23 | 37 | 8.0 | 12.9 | 0.00 | 0.00 | 0.00 | 21 | 1009.0 |
| 20260502110542 | 23 | 34 | 6.4 | 12.9 | 0.00 | 0.00 | 0.00 | 21 | 1009.0 |
| 20260502110044 | 23 | 67 | 6.4 | 12.9 | 0.00 | 0.00 | 0.00 | 21 | 1009.0 |
| 20260502105542 | 23 | 46 | 6.4 | 12.9 | 0.00 | 0.00 | 0.00 | 21 | 1009.1 |
| 20260502105041 | 23 | 42 | 1.6 | 14.5 | 0.00 | 0.00 | 0.00 | 22 | 1009.0 |
| 20260502104541 | 23 | 32 | 4.8 | 14.5 | 0.00 | 0.00 | 0.00 | 22 | 1009.0 |
| 20260502104039 | 23 | 355 | 4.8 | 9.7 | 0.00 | 0.00 | 0.00 | 21 | 1008.9 |
| 20260502103542 | 23 | 26 | 4.8 | 9.7 | 0.00 | 0.00 | 0.00 | 22 | 1008.9 |
| 20260502103038 | 23 | 32 | 6.4 | 9.7 | 0.00 | 0.00 | 0.00 | 22 | 1008.9 |
| 20260502102537 | 24 | 51 | 4.8 | 12.9 | 0.00 | 0.00 | 0.00 | 21 | 1008.9 |
| 20260502102037 | 24 | 42 | 4.8 | 11.3 | 0.00 | 0.00 | 0.00 | 21 | 1008.8 |
| 20260502101541 | 24 | 40 | 4.8 | 11.3 | 0.00 | 0.00 | 0.00 | 21 | 1008.9 |
| 20260502101034 | 24 | 61 | 4.8 | 11.3 | 0.00 | 0.00 | 0.00 | 22 | 1008.8 |
| 20260502100534 | 24 | 52 | 6.4 | 12.9 | 0.00 | 0.00 | 0.00 | 21 | 1008.7 |
| 20260502091529 | 25 | 50 | 4.8 | 9.7 | 0.00 | 0.00 | 0.00 | 21 | 1008.5 |
| 20260502091028 | 25 | 47 | 4.8 | 17.7 | 0.00 | 0.00 | 0.00 | 20 | 1008.5 |
| 20260502090527 | 25 | 51 | 4.8 | 17.7 | 0.00 | 0.00 | 0.00 | 19 | 1008.5 |
| 20260502071510 | 27 | 5 | 8.0 | 20.9 | 0.00 | 0.00 | 0.00 | 16 | 1007.8 |
| 20260502071013 | 27 | 324 | 9.7 | 16.1 | 0.00 | 0.00 | 0.00 | 15 | 1007.8 |
| 20260502070509 | 27 | 34 | 8.0 | 14.5 | 0.00 | 0.00 | 0.00 | 15 | 1007.7 |
| 20260502070007 | 27 | 344 | 4.8 | 11.3 | 0.00 | 0.00 | 0.00 | 15 | 1007.7 |
| 20260502065506 | 27 | 355 | 4.8 | 11.3 | 0.00 | 0.00 | 0.00 | 16 | 1007.7 |
| 20260502065007 | 27 | 350 | 4.8 | 12.9 | 0.00 | 0.00 | 0.00 | 15 | 1007.7 |
| 20260502064519 | 28 | 340 | 4.8 | 19.3 | 0.00 | 0.00 | 0.00 | 14 | 1007.6 |
| 20260502064006 | 28 | 355 | 8.0 | 20.9 | 0.00 | 0.00 | 0.00 | 13 | 1007.7 |
| 20260502063506 | 28 | 306 | 9.7 | 19.3 | 0.00 | 0.00 | 0.00 | 13 | 1007.6 |
| 20260502063005 | 28 | 355 | 9.7 | 25.7 | 0.00 | 0.00 | 0.00 | 13 | 1007.6 |
| 20260502062506 | 28 | 300 | 9.7 | 25.7 | 0.00 | 0.00 | 0.00 | 13 | 1007.5 |
| 20260502062005 | 28 | 301 | 11.3 | 19.3 | 0.00 | 0.00 | 0.00 | 13 | 1007.5 |
| 20260502061504 | 27 | 337 | 11.3 | 19.3 | 0.00 | 0.00 | 0.00 | 14 | 1007.5 |
| 20260502061004 | 27 | 328 | 8.0 | 16.1 | 0.00 | 0.00 | 0.00 | 14 | 1007.5 |
| 20260502060504 | 27 | 331 | 11.3 | 16.1 | 0.00 | 0.00 | 0.00 | 14 | 1007.5 |
| 20260502060004 | 27 | 311 | 6.4 | 16.1 | 0.00 | 0.00 | 0.00 | 15 | 1007.4 |
| 20260502055504 | 27 | 321 | 6.4 | 11.3 | 0.00 | 0.00 | 0.00 | 15 | 1007.5 |
| 20260502055005 | 27 | 314 | 4.8 | 12.9 | 0.00 | 0.00 | 0.00 | 15 | 1007.3 |
| 20260502054504 | 27 | 313 | 4.8 | 12.9 | 0.00 | 0.00 | 0.00 | 15 | 1007.4 |
| 20260502054004 | 27 | 265 | 4.8 | 9.7 | 0.00 | 0.00 | 0.00 | 15 | 1007.5 |
| 20260502053503 | 27 | 300 | 4.8 | 9.7 | 0.00 | 0.00 | 0.00 | 16 | 1007.5 |
| 20260502053004 | 27 | 288 | 3.2 | 9.7 | 0.00 | 0.00 | 0.00 | 16 | 1007.5 |
| 20260502052505 | 27 | 255 | 3.2 | 8.0 | 0.00 | 0.00 | 0.00 | 15 | 1007.4 |
| 20260502052003 | 27 | 265 | 3.2 | 9.7 | 0.00 | 0.00 | 0.00 | 15 | 1007.5 |
| 20260502051502 | 26 | 269 | 3.2 | 9.7 | 0.00 | 0.00 | 0.00 | 17 | 1007.5 |
| 20260502051002 | 26 | 260 | 4.8 | 9.7 | 0.00 | 0.00 | 0.00 | 16 | 1007.5 |
| 20260502050501 | 26 | 281 | 3.2 | 4.8 | 0.00 | 0.00 | 0.00 | 17 | 1007.5 |
| 20260502050002 | 26 | 208 | 0.0 | 3.2 | 0.00 | 0.00 | 0.00 | 18 | 1007.3 |
| 20260502045501 | 26 | 269 | 1.6 | 6.4 | 0.00 | 0.00 | 0.00 | 17 | 1007.3 |
| 20260502045003 | 26 | 263 | 1.6 | 9.7 | 0.00 | 0.00 | 0.00 | 18 | 1007.3 |
| 20260502044504 | 26 | 284 | 1.6 | 9.7 | 0.00 | 0.00 | 0.00 | 18 | 1007.2 |
| 20260502044002 | 26 | 250 | 1.6 | 6.4 | 0.00 | 0.00 | 0.00 | 18 | 1007.2 |
| 20260502043600 | 26 | 215 | 1.6 | 6.4 | 0.00 | 0.00 | 0.00 | 18 | 1007.1 |
| 20260502043101 | 26 | 213 | 1.6 | 6.4 | 0.00 | 0.00 | 0.00 | 18 | 1007.1 |
| 20260502042600 | 26 | 226 | 0.0 | 4.8 | 0.00 | 0.00 | 0.00 | 18 | 1007.1 |
| 20260502042100 | 27 | 260 | 0.0 | 4.8 | 0.00 | 0.00 | 0.00 | 18 | 1007.0 |
| 20260502041559 | 26 | 272 | 3.2 | 4.8 | 0.00 | 0.00 | 0.00 | 18 | 1007.0 |
| 20260502041103 | 26 | 266 | 1.6 | 4.8 | 0.00 | 0.00 | 0.00 | 18 | 1006.9 |
| 20260502040559 | 27 | 262 | 0.0 | 3.2 | 0.00 | 0.00 | 0.00 | 18 | 1006.8 |
| 20260502040108 | 27 | 249 | 0.0 | 3.2 | 0.00 | 0.00 | 0.00 | 18 | 1006.7 |
| 20260502035559 | 27 | 281 | 0.0 | 3.2 | 0.00 | 0.00 | 0.00 | 19 | 1006.7 |
| 20260502035103 | 27 | 258 | 0.0 | 3.2 | 0.00 | 0.00 | 0.00 | 18 | 1006.7 |
| 20260502034559 | 27 | 265 | 0.0 | 3.2 | 0.00 | 0.00 | 0.00 | 18 | 1006.5 |
| 20260502034059 | 27 | 263 | 0.0 | 3.2 | 0.00 | 0.00 | 0.00 | 19 | 1006.5 |
| 20260502033558 | 27 | 264 | 0.0 | 1.6 | 0.00 | 0.00 | 0.00 | 18 | 1006.4 |
| 20260502033059 | 27 | 259 | 0.0 | 3.2 | 0.00 | 0.00 | 0.00 | 18 | 1006.5 |
| 20260502032559 | 27 | 254 | 0.0 | 3.2 | 0.00 | 0.00 | 0.00 | 18 | 1006.4 |
| 20260502032057 | 27 | 254 | 0.0 | 3.2 | 0.00 | 0.00 | 0.00 | 18 | 1006.3 |
| 20260502031631 | 27 | 265 | 1.6 | 3.2 | 0.00 | 0.00 | 0.00 | 18 | 1006.3 |
| 20260502031058 | 28 | 270 | 0.0 | 6.4 | 0.00 | 0.00 | 0.00 | 18 | 1006.3 |
| 20260502030558 | 28 | 261 | 0.0 | 6.4 | 0.00 | 0.00 | 0.00 | 18 | 1006.2 |
| 20260502030100 | 28 | 273 | 0.0 | 4.8 | 0.00 | 0.00 | 0.00 | 17 | 1006.1 |
| 20260502025557 | 28 | 224 | 0.0 | 3.2 | 0.00 | 0.00 | 0.00 | 18 | 1006.0 |
| 20260502025057 | 28 | 230 | 0.0 | 4.8 | 0.00 | 0.00 | 0.00 | 17 | 1005.9 |
| 20260502024556 | 28 | 248 | 0.0 | 8.0 | 0.00 | 0.00 | 0.00 | 17 | 1005.9 |
| 20260502024057 | 28 | 213 | 1.6 | 8.0 | 0.00 | 0.00 | 0.00 | 17 | 1005.9 |
| 20260502023557 | 28 | 235 | 0.0 | 6.4 | 0.00 | 0.00 | 0.00 | 17 | 1005.9 |
| 20260502023058 | 28 | 202 | 0.0 | 6.4 | 0.00 | 0.00 | 0.00 | 18 | 1005.9 |
| 20260502022555 | 28 | 239 | 1.6 | 6.4 | 0.00 | 0.00 | 0.00 | 17 | 1005.8 |
| 20260502022055 | 29 | 176 | 0.0 | 3.2 | 0.00 | 0.00 | 0.00 | 17 | 1005.7 |
| 20260502021555 | 29 | 232 | 0.0 | 3.2 | 0.00 | 0.00 | 0.00 | 17 | 1005.6 |
| 20260502021055 | 29 | 254 | 0.0 | 6.4 | 0.00 | 0.00 | 0.00 | 17 | 1005.6 |
| 20260502020556 | 30 | 211 | 1.6 | 6.4 | 0.00 | 0.00 | 0.00 | 16 | 1005.6 |
| 20260502020111 | 30 | 213 | 0.0 | 8.0 | 0.00 | 0.00 | 0.00 | 16 | 1005.6 |
| 20260502015557 | 30 | 244 | 0.0 | 9.7 | 0.00 | 0.00 | 0.00 | 16 | 1005.6 |
| 20260502015054 | 30 | 200 | 1.6 | 9.7 | 0.00 | 0.00 | 0.00 | 16 | 1005.4 |
| 20260502014556 | 30 | 234 | 1.6 | 9.7 | 0.00 | 0.00 | 0.00 | 16 | 1005.5 |
| 20260502014058 | 31 | 214 | 1.6 | 11.3 | 0.00 | 0.00 | 0.00 | 15 | 1005.4 |
| 20260502013554 | 31 | 210 | 3.2 | 11.3 | 0.00 | 0.00 | 0.00 | 15 | 1005.5 |
| 20260502013053 | 31 | 236 | 1.6 | 11.3 | 0.00 | 0.00 | 0.00 | 15 | 1005.5 |
| 20260502012554 | 32 | 247 | 3.2 | 11.3 | 0.00 | 0.00 | 0.00 | 15 | 1005.5 |
| 20260502012054 | 32 | 217 | 1.6 | 9.7 | 0.00 | 0.00 | 0.00 | 15 | 1005.4 |
| 20260502011557 | 32 | 159 | 1.6 | 6.4 | 0.00 | 0.00 | 0.00 | 14 | 1005.5 |
| 20260502011055 | 32 | 210 | 1.6 | 4.8 | 0.00 | 0.00 | 0.00 | 14 | 1005.4 |
| 20260502010553 | 32 | 224 | 1.6 | 6.4 | 0.00 | 0.00 | 0.00 | 14 | 1005.4 |
| 20260502010054 | 32 | 196 | 1.6 | 4.8 | 0.00 | 0.00 | 0.00 | 14 | 1005.4 |
| 20260502005553 | 32 | 189 | 0.0 | 4.8 | 0.00 | 0.00 | 0.00 | 14 | 1005.3 |
| 20260502005053 | 32 | 171 | 0.0 | 9.7 | 0.00 | 0.00 | 0.00 | 13 | 1005.5 |
| 20260502004557 | 32 | 240 | 3.2 | 9.7 | 0.00 | 0.00 | 0.00 | 12 | 1005.5 |
| 20260502004052 | 32 | 292 | 1.6 | 8.0 | 0.00 | 0.00 | 0.00 | 13 | 1005.4 |
| 20260502003551 | 32 | 259 | 3.2 | 6.4 | 0.00 | 0.00 | 0.00 | 13 | 1005.4 |
| 20260502003111 | 32 | 215 | 0.0 | 3.2 | 0.00 | 0.00 | 0.00 | 13 | 1005.4 |
| 20260502002550 | 32 | 211 | 0.0 | 8.0 | 0.00 | 0.00 | 0.00 | 13 | 1005.4 |
| 20260502002050 | 32 | 300 | 3.2 | 8.0 | 0.00 | 0.00 | 0.00 | 13 | 1005.5 |
| 20260502001625 | 32 | 355 | 1.6 | 8.0 | 0.00 | 0.00 | 0.00 | 14 | 1005.5 |
| 20260502001049 | 32 | 290 | 3.2 | 11.3 | 0.00 | 0.00 | 0.00 | 13 | 1005.6 |
| 20260502000549 | 32 | 300 | 3.2 | 11.3 | 0.00 | 0.00 | 0.00 | 13 | 1005.6 |
| 20260502000049 | 32 | 46 | 3.2 | 9.7 | 0.00 | 0.00 | 0.00 | 13 | 1005.5 |
| 20260501235547 | 32 | 270 | 1.6 | 11.3 | 0.00 | 0.00 | 0.00 | 13 | 1005.6 |
| 20260501235048 | 32 | 355 | 6.4 | 11.3 | 0.00 | 0.00 | 0.00 | 13 | 1005.6 |
| 20260501234549 | 32 | 336 | 3.2 | 14.5 | 0.00 | 0.00 | 0.00 | 14 | 1005.6 |
| 20260501234048 | 32 | 270 | 4.8 | 9.7 | 0.00 | 0.00 | 0.00 | 14 | 1005.6 |
| 20260501233549 | 31 | 207 | 1.6 | 11.3 | 0.00 | 0.00 | 0.00 | 14 | 1005.6 |
| 20260501233047 | 31 | 229 | 4.8 | 14.5 | 0.00 | 0.00 | 0.00 | 14 | 1005.6 |
| 20260501232547 | 31 | 294 | 8.0 | 16.1 | 0.00 | 0.00 | 0.00 | 15 | 1005.6 |
| 20260501232046 | 31 | 323 | 6.4 | 16.1 | 0.00 | 0.00 | 0.00 | 16 | 1005.6 |
| 20260501231545 | 32 | 307 | 8.0 | 14.5 | 0.00 | 0.00 | 0.00 | 15 | 1005.7 |
| 20260501231045 | 32 | 288 | 4.8 | 12.9 | 0.00 | 0.00 | 0.00 | 16 | 1005.7 |
| 20260501230546 | 32 | 279 | 6.4 | 16.1 | 0.00 | 0.00 | 0.00 | 16 | 1005.8 |
| 20260501230045 | 32 | 250 | 6.4 | 16.1 | 0.00 | 0.00 | 0.00 | 17 | 1005.7 |
| 20260501225545 | 32 | 213 | 1.6 | 8.0 | 0.00 | 0.00 | 0.00 | 17 | 1005.7 |
| 20260501225044 | 32 | 223 | 0.0 | 11.3 | 0.00 | 0.00 | 0.00 | 17 | 1005.8 |
| 20260501224556 | 32 | 242 | 4.8 | 12.9 | 0.00 | 0.00 | 0.00 | 16 | 1005.9 |
| 20260501224043 | 31 | 256 | 6.4 | 12.9 | 0.00 | 0.00 | 0.00 | 18 | 1006.0 |
| 20260501223546 | 31 | 232 | 3.2 | 11.3 | 0.00 | 0.00 | 0.00 | 18 | 1006.0 |
| 20260501223043 | 31 | 243 | 6.4 | 12.9 | 0.00 | 0.00 | 0.00 | 18 | 1006.1 |
| 20260501222543 | 31 | 15 | 1.6 | 12.9 | 0.00 | 0.00 | 0.00 | 19 | 1006.3 |
| 20260501222043 | 31 | 245 | 4.8 | 12.9 | 0.00 | 0.00 | 0.00 | 18 | 1006.4 |
| 20260501221545 | 32 | 279 | 4.8 | 12.9 | 0.00 | 0.00 | 0.00 | 18 | 1006.4 |
| 20260501221042 | 32 | 351 | 1.6 | 9.7 | 0.00 | 0.00 | 0.00 | 19 | 1006.3 |
| 20260501220542 | 32 | 192 | 3.2 | 14.5 | 0.00 | 0.00 | 0.00 | 19 | 1006.5 |
| 20260501220047 | 32 | 236 | 3.2 | 14.5 | 0.00 | 0.00 | 0.00 | 19 | 1006.5 |
| 20260501215541 | 32 | 229 | 6.4 | 14.5 | 0.00 | 0.00 | 0.00 | 18 | 1006.7 |
| 20260501215043 | 32 | 150 | 3.2 | 14.5 | 0.00 | 0.00 | 0.00 | 20 | 1006.8 |
| 20260501214541 | 32 | 100 | 3.2 | 11.3 | 0.00 | 0.00 | 0.00 | 19 | 1006.8 |
| 20260501214039 | 32 | 214 | 1.6 | 9.7 | 0.00 | 0.00 | 0.00 | 19 | 1007.0 |
| 20260501213538 | 32 | 151 | 3.2 | 12.9 | 0.00 | 0.00 | 0.00 | 19 | 1007.1 |
| 20260501213044 | 32 | 210 | 3.2 | 14.5 | 0.00 | 0.00 | 0.00 | 19 | 1007.2 |
| 20260501212536 | 31 | 218 | 0.0 | 14.5 | 0.00 | 0.00 | 0.00 | 20 | 1007.3 |
| 20260501212035 | 31 | 190 | 3.2 | 11.3 | 0.00 | 0.00 | 0.00 | 20 | 1007.4 |
| 20260501211535 | 31 | 160 | 3.2 | 11.3 | 0.00 | 0.00 | 0.00 | 19 | 1007.5 |
| 20260501211034 | 31 | 172 | 1.6 | 16.1 | 0.00 | 0.00 | 0.00 | 20 | 1007.5 |
| 20260501210532 | 31 | 179 | 4.8 | 16.1 | 0.00 | 0.00 | 0.00 | 21 | 1007.6 |
| 20260501210037 | 31 | 277 | 4.8 | 11.3 | 0.00 | 0.00 | 0.00 | 20 | 1007.7 |
| 20260501205533 | 31 | 230 | 3.2 | 9.7 | 0.00 | 0.00 | 0.00 | 21 | 1007.8 |
| 20260501205034 | 31 | 192 | 1.6 | 12.9 | 0.00 | 0.00 | 0.00 | 21 | 1007.8 |
| 20260501204530 | 30 | 141 | 3.2 | 9.7 | 0.00 | 0.00 | 0.00 | 21 | 1007.8 |
| 20260501204029 | 30 | 140 | 3.2 | 9.7 | 0.00 | 0.00 | 0.00 | 21 | 1007.9 |
| 20260501203528 | 30 | 196 | 1.6 | 8.0 | 0.00 | 0.00 | 0.00 | 23 | 1007.9 |
| 20260501203032 | 29 | 182 | 3.2 | 11.3 | 0.00 | 0.00 | 0.00 | 23 | 1008.0 |
| 20260501202528 | 29 | 203 | 1.6 | 11.3 | 0.00 | 0.00 | 0.00 | 24 | 1008.0 |
| 20260501202026 | 29 | 213 | 1.6 | 11.3 | 0.00 | 0.00 | 0.00 | 24 | 1008.1 |
| 20260501201528 | 29 | 167 | 3.2 | 11.3 | 0.00 | 0.00 | 0.00 | 23 | 1008.2 |
| 20260501201029 | 29 | 217 | 4.8 | 11.3 | 0.00 | 0.00 | 0.00 | 24 | 1008.2 |
| 20260501200525 | 29 | 207 | 1.6 | 9.7 | 0.00 | 0.00 | 0.00 | 24 | 1008.3 |
| 20260501200025 | 29 | 309 | 4.8 | 9.7 | 0.00 | 0.00 | 0.00 | 24 | 1008.4 |
| 20260501195525 | 29 | 169 | 1.6 | 9.7 | 0.00 | 0.00 | 0.00 | 25 | 1008.4 |
| 20260501195027 | 29 | 222 | 3.2 | 9.7 | 0.00 | 0.00 | 0.00 | 24 | 1008.5 |
| 20260501194527 | 29 | 265 | 1.6 | 6.4 | 0.00 | 0.00 | 0.00 | 24 | 1008.5 |
| 20260501194024 | 29 | 188 | 0.0 | 8.0 | 0.00 | 0.00 | 0.00 | 24 | 1008.5 |
| 20260501193523 | 29 | 220 | 1.6 | 8.0 | 0.00 | 0.00 | 0.00 | 25 | 1008.7 |
| 20260501193024 | 29 | 257 | 1.6 | 8.0 | 0.00 | 0.00 | 0.00 | 24 | 1008.8 |
| 20260501192523 | 28 | 161 | 1.6 | 8.0 | 0.00 | 0.00 | 0.00 | 24 | 1008.8 |
| 20260501192021 | 28 | 146 | 0.0 | 6.4 | 0.00 | 0.00 | 0.00 | 25 | 1008.9 |
| 20260501191520 | 28 | 141 | 1.6 | 6.4 | 0.00 | 0.00 | 0.00 | 25 | 1009.0 |
| 20260501191020 | 28 | 169 | 0.0 | 8.0 | 0.00 | 0.00 | 0.00 | 25 | 1009.1 |
| 20260501190524 | 28 | 202 | 1.6 | 8.0 | 0.00 | 0.00 | 0.00 | 25 | 1009.2 |
| 20260501190018 | 28 | 119 | 3.2 | 9.7 | 0.00 | 0.00 | 0.00 | 25 | 1009.1 |
| 20260501185516 | 28 | 156 | 3.2 | 9.7 | 0.00 | 0.00 | 0.00 | 25 | 1009.2 |
| 20260501185015 | 28 | 266 | 3.2 | 9.7 | 0.00 | 0.00 | 0.00 | 25 | 1009.3 |
| 20260501184514 | 27 | 267 | 1.6 | 9.7 | 0.00 | 0.00 | 0.00 | 26 | 1009.3 |
| 20260501184013 | 27 | 290 | 1.6 | 9.7 | 0.00 | 0.00 | 0.00 | 26 | 1009.4 |
| 20260501183513 | 27 | 227 | 0.0 | 8.0 | 0.00 | 0.00 | 0.00 | 26 | 1009.6 |
| 20260501183011 | 27 | 153 | 1.6 | 11.3 | 0.00 | 0.00 | 0.00 | 25 | 1009.6 |
| 20260501182513 | 27 | 196 | 3.2 | 9.7 | 0.00 | 0.00 | 0.00 | 26 | 1009.6 |
| 20260501182009 | 27 | 155 | 1.6 | 6.4 | 0.00 | 0.00 | 0.00 | 26 | 1009.7 |
| 20260501181512 | 27 | 125 | 1.6 | 6.4 | 0.00 | 0.00 | 0.00 | 27 | 1009.8 |
| 20260501181006 | 27 | 44 | 0.0 | 6.4 | 0.00 | 0.00 | 0.00 | 27 | 1009.9 |
| 20260501180505 | 27 | 234 | 0.0 | 6.4 | 0.00 | 0.00 | 0.00 | 27 | 1010.0 |
| 20260501180005 | 27 | 143 | 3.2 | 8.0 | 0.00 | 0.00 | 0.00 | 27 | 1010.0 |
| 20260501175504 | 27 | 24 | 0.0 | 6.4 | 0.00 | 0.00 | 0.00 | 29 | 1010.0 |
| 20260501175002 | 27 | 318 | 0.0 | 6.4 | 0.00 | 0.00 | 0.00 | 28 | 1010.0 |
| 20260501174502 | 27 | 180 | 1.6 | 6.4 | 0.00 | 0.00 | 0.00 | 28 | 1010.0 |
| 20260501174100 | 27 | 167 | 1.6 | 8.0 | 0.00 | 0.00 | 0.00 | 28 | 1010.0 |
| 20260501173603 | 26 | 137 | 3.2 | 8.0 | 0.00 | 0.00 | 0.00 | 29 | 1010.0 |
| 20260501173105 | 26 | 163 | 1.6 | 8.0 | 0.00 | 0.00 | 0.00 | 29 | 1010.1 |
| 20260501172557 | 26 | 200 | 1.6 | 8.0 | 0.00 | 0.00 | 0.00 | 30 | 1010.1 |
| 20260501172058 | 26 | 218 | 1.6 | 9.7 | 0.00 | 0.00 | 0.00 | 31 | 1010.1 |
| 20260501171554 | 26 | 282 | 1.6 | 9.7 | 0.00 | 0.00 | 0.00 | 30 | 1010.1 |
| 20260501171057 | 26 | 229 | 1.6 | 9.7 | 0.00 | 0.00 | 0.00 | 30 | 1010.2 |
| 20260501170552 | 26 | 187 | 1.6 | 9.7 | 0.00 | 0.00 | 0.00 | 31 | 1010.2 |
| 20260501170053 | 26 | 123 | 4.8 | 9.7 | 0.00 | 0.00 | 0.00 | 30 | 1010.1 |
| 20260501165551 | 26 | 237 | 3.2 | 9.7 | 0.00 | 0.00 | 0.00 | 31 | 1010.1 |
| 20260501165049 | 25 | 132 | 1.6 | 9.7 | 0.00 | 0.00 | 0.00 | 31 | 1010.0 |
| 20260501164556 | 25 | 188 | 3.2 | 9.7 | 0.00 | 0.00 | 0.00 | 31 | 1010.1 |